This demonstration page uses our WeatherBlox Daily Observations layout. Learn more.

Left ArrowRight Arrow

39.08367, -84.50855

Hourly Observations for May 31, 2022

Temp ( °F °C ) Dew Point ( °F °C ) Humidity (%) Winds ( mph kmh ) Pressure ( in mb ) Visibility ( mi km ) Precip ( " mm )
12:53 am 00:53 Clear 68 20 67 19.4 96 96 Calm 30.01 1016 10 16 0.00 0.00
1:53 am 01:53 Clear 67 19.4 66 18.9 97 97 Calm 30.01 1016 9 14 0.00 0.00
2:53 am 02:53 Clear 65 18.3 65 18.3 100 100 Calm 30.03 1017 8 13 0.00 0.00
3:48 am 03:48 Clear with Mist and Fog 64 18 64 18 100 100 Calm 30.04 1017 3 4 0.00 0.00
3:53 am 03:53 Clear with Mist and Fog 65 18.3 65 18.3 100 100 Calm 30.03 1017 6 10 0.00 0.00
4:35 am 04:35 Clear with Mist and Fog 64 17.8 64 17.8 100 100 Calm 30.04 1017 2 2 0.00 0.00
4:46 am 04:46 Clear with Mist and Fog 65 18.3 65 18.3 100 100 SW 3 6 30.05 1018 3 5 0.00 0.00
4:53 am 04:53 Clear with Mist and Fog 64 17.8 64 17.8 100 100 Calm 30.04 1017 6 10 0.00 0.00
5:45 am 05:45 Clear with Mist and Fog 64 17.8 64 17.8 100 100 Calm 30.05 1018 2 3 0.00 0.00
5:53 am 05:53 Clear with Fog 64 17.8 64 17.8 100 100 Calm 30.05 1018 0 0 0.00 0.00
6:00 am 06:00 Clear with Mist and Fog 64 17.8 64 17.8 100 100 Calm 30.06 1018 1 1 0.00 0.00
6:07 am 06:07 Mostly Cloudy with Fog 62 16.7 62 16.7 100 100 Calm 30.06 1018 1 1 0.00 0.00
6:15 am 06:15 Sunny with Mist and Fog 63 17.2 63 17.2 100 100 Calm 30.06 1018 3 4 0.00 0.00
6:23 am 06:23 Mostly Cloudy with Mist and Fog 63 17.2 63 17.2 100 100 Calm 30.06 1018 1 2 0.00 0.00
6:28 am 06:28 Mostly Cloudy with Fog 63 17.2 63 17.2 100 100 Calm 30.06 1018 0 0 0.00 0.00
6:34 am 06:34 Sunny with Fog 64 17.8 64 17.8 100 100 W 3 6 30.06 1018 1 1 0.00 0.00
6:39 am 06:39 Sunny with Mist and Fog 64 17.8 64 17.8 100 100 Calm 30.07 1018 3 4 0.00 0.00
6:46 am 06:46 Sunny with Mist and Fog 63 17.2 63 17.2 100 100 Calm 30.07 1018 3 5 0.00 0.00
6:53 am 06:53 Sunny 63 17.2 63 17.2 100 100 Calm 30.07 1018 10 16 0.00 0.00
7:42 am 07:42 Mostly Sunny 67 19.4 66 18.9 97 97 Calm 30.09 1019 10 16 0.00 0.00
7:53 am 07:53 Sunny 68 20 67 19.4 96 96 Calm 30.09 1019 10 16 0.00 0.00
8:53 am 08:53 Sunny 75 23.9 69 20.6 82 82 S 3 6 30.10 1019 10 16 0.00 0.00
9:53 am 09:53 Sunny 80 26.7 69 20.6 69 69 SSW 6 9 30.10 1019 10 16 0.00 0.00
10:53 am 10:53 Sunny 83 28.3 69 20.6 63 63 SSW 9 15 30.09 1019 10 16 0.00 0.00
11:53 am 11:53 Sunny 85 29.4 71 21.7 63 63 SSW 8 13 30.07 1018 10 16 0.00 0.00
12:53 pm 12:53 Sunny 85 29.4 68 20 57 57 SW 10 17 30.05 1018 10 16 0.00 0.00
1:53 pm 13:53 Partly Cloudy 87 30.6 68 20 53 53 SW 12 19 30.04 1017 10 16 0.00 0.00
2:53 pm 14:53 Partly Cloudy 87 30.6 69 20.6 55 55 SSW 16 26 30.04 1017 10 16 0.00 0.00
3:53 pm 15:53 Mostly Sunny 88 31.1 69 20.6 54 54 SSW 12 19 30.04 1017 10 16 0.00 0.00
4:53 pm 16:53 Partly Cloudy 88 31.1 67 19.4 50 50 SW 10 17 30.02 1017 10 16 0.00 0.00
5:53 pm 17:53 Mostly Sunny 87 30.6 69 20.6 55 55 SSW 13 20 30.01 1016 10 16 0.00 0.00
6:53 pm 18:53 Mostly Sunny 85 29.4 68 20 57 57 SSW 9 15 30.01 1016 10 16 0.00 0.00
7:53 pm 19:53 Sunny 82 27.8 67 19.4 60 60 SSW 10 17 29.98 1015 10 16 0.00 0.00
8:53 pm 20:53 Sunny 77 25 69 20.6 77 77 S 5 7 29.98 1015 10 16 0.00 0.00
9:53 pm 21:53 Clear 71 21.7 69 20.6 94 94 Calm 29.99 1016 10 16 0.00 0.00
10:53 pm 22:53 Clear 71 21.7 68 20 90 90 Calm 30.00 1016 10 16 0.00 0.00
11:53 pm 23:53 Clear 70 21.1 68 20 93 93 Calm 29.99 1016 10 16 0.00 0.00

Powered by AerisWeather